INTELSAT 904 (IS-904)

Last updated on May 23, 2019, 3:05 a.m. UTC

1 27380U 02007A   19142.82517354  .00000064  00000-0  00000+0 0  9990
2 27380   0.5501  97.4391 0002571 326.6752 126.3050  1.00161052 63194
UTC
Height (km)
Latitude
Longitude
Inclination
Orbital Period
UTC large
Height (km)
Speed (km/s)
/
Latitude / Longitude
Inclination (degrees)
Orbital Period (minutes)
Azimuth
Elevation
Range (km)
Doppler Factor
iOS Compass Heading
iOS Angle

Next 30 passes for location: Hong Kong

Rise time Rise Azimuth (degrees) Set time Set Azimuth (degrees) Duration Max altitude (degrees)

No matching passes for this satellites